Location: Ay?beleni
(36.6500°N, 30.3000°E)
Time: 02:40:36
(UTC+00:00)

Cosmos 2263 Rocket - Pass Details

Date: 16 October 2021
Orbit: 825 x 847 km, 71.0° (Epoch: 04 December)

Event Time Altitude Azimuth Distance (km) Brightness Sun altitude
Rises 15:40:20 0° 358° (N) 3,370 5.3 -4.6°
Reaches altitude 10° 15:44:50 10° 32° (NNE) 2,430 4.2 -5.5°
Maximum altitude 15:46:34 11° 50° (NE) 2,332 4.0 -5.9°
Drops below altitude 10° 15:48:17 10° 68° (ENE) 2,426 4.0 -6.2°
Enters shadow 15:49:38 - 81° (E) 2,625 4.1 -6.5°
